Location: N�rnberg
(49.4471°N, 11.0632°E)
Time: 20:52:31
(UTC+02:00)

VELOX 1 - Pass Details

Date: 21 April 2026
Orbit: 569 x 580 km, 98.3° (Epoch: 13 May)

Event Time Altitude Azimuth Distance (km) Brightness Sun altitude
Rises 23:20:43 0° 32° (NNE) 2,783 ? -23.6°
Reaches altitude 10° 23:23:57 10° 60° (ENE) 1,879 ? -23.8°
Enters shadow 23:24:01 10° 61° (ENE) 1,864 ? -23.8°
